Simultaneous Nadir Overpasses (SNOs) Predictions

Prediction of SNOs between GOES-16 and NOAA-19 Satellite Orbit:

Table of predicted SNOs for the next 14.0 days since TLE Epoch: 10/5/2019
Index Date Time (GOES-16) GOES-16 Lat,Lon NOAA-19 Lat,Lon Distance(km) Time Diff (sec)
1 10/05/2019 22:14:25 0.01, -75.20 -0.05, -75.50 33.84 80
2 10/06/2019 22:05:26 0.01, -75.20 0.63, -72.66 291.45 80
3 10/09/2019 10:26:22 -0.01, -75.23 0.55, -77.60 270.80 80
4 10/10/2019 10:12:04 -0.01, -75.24 -0.12, -74.76 55.13 80
5 10/11/2019 10:00:25 -0.01, -75.26 -0.79, -71.92 381.22 80
6 10/13/2019 22:24:19 0.01, -75.29 -0.38, -76.94 188.99 80
7 10/14/2019 22:12:40 0.01, -75.30 0.31, -74.10 137.67 80
8 10/15/2019 22:01:01 0.01, -75.32 0.93, -71.25 464.38 80
9 10/17/2019 10:30:57 -0.00, -75.36 0.88, -79.05 422.29 80
10 10/18/2019 10:19:19 0.00, -75.37 0.21, -76.21 95.51 80




NCC Satellite Simultaneous Nadir Overpasses (SNOs) Prediction Service
